Weather History for KIPT - February, 2015

Change the Weather History Date:

Tuesday, February 17, 2015

  Actual Average Record
Temperature  
Mean Temperature 16 °F 30 °F  
Max Temperature 26 °F 38 °F 62 °F (1927)
Min Temperature 6 °F 22 °F -6 °F (1979)
Degree Days  
Heating Degree Days 49 35  
Month to date heating degree days 762 618  
Since 1 July heating degree days 4092 4097  
Cooling Degree Days 0 0  
Month to date cooling degree days 0 0  
Year to date cooling degree days 0 0  
Moisture  
Dew Point 4 °F    
Average Humidity 61    
Maximum Humidity 80    
Minimum Humidity 42    
Precipitation  
Precipitation 0.02 in 0.08 in 1.28 in (1954)
Month to date precipitation 0.93 1.41  
Year to date precipitation 2.64 4.11  
Snow  
Snow 0.30 in 0.40 in 9.80 in (2003)
Month to date snowfall 7.2 5.4  
Since 1 July snowfall 31.0 24.6  
Snow Depth 6.00 in    
Sea Level Pressure  
Sea Level Pressure 29.94 in    
Wind  
Wind Speed 3 mph (East)    
Max Wind Speed 10 mph    
Max Gust Speed 13 mph    
Visibility 8 miles    
Events Snow    
T = Trace of Precipitation, MM = Missing Value Source: NWS Daily Summary

Daily Weather History Graph

Daily Weather History Graph

Search for Another Location

Airport or City:

Trip Planner

Search our weather history database for the weather conditions in past years. The results will help you decide how hot, cold, wet, or windy it might be!

Date:

Astronomy

Feb. 17, 2015 Rise Set
Actual Time 7:00 AM EST 5:43 PM EST
Civil Twilight 6:31 AM EST 6:12 PM EST
Nautical Twilight 5:59 AM EST 6:44 PM EST
Astronomical Twilight 5:27 AM EST 7:16 PM EST
Moon 5:42 AM EST (2/17) 4:29 PM EST (2/17)
Length of Visible Light 11h 40m
Length of Day
10h 43m
Waning Crescent, 3% of the Moon is Illuminated
Feb 17
Waning Crescent
Feb 18
New
Feb 25
First Quarter
Mar 5
Full
Mar 13
Last Quarter

Hourly Weather History & Observations

Time (EST) Temp. Windchill Dew Point Humidity Pressure Visibility Wind Dir Wind Speed Gust Speed Precip Events Conditions
12:54 AM 10.9 °F 1.4 °F 3.9 °F 73% 30.04 in 4.0 mi ENE 5.8 mph - 0.00 in Snow Light Snow
1:42 AM 10.0 °F 0.4 °F 3.9 °F 76% 29.97 in 2.5 mi ENE 5.8 mph - 0.01 in Snow Light Snow
1:54 AM 10.0 °F 0.4 °F 3.9 °F 76% 30.01 in 2.5 mi ENE 5.8 mph - 0.01 in Snow Light Snow
2:14 AM 10.0 °F -1.9 °F 3.9 °F 76% 29.96 in 3.0 mi ENE 8.1 mph - 0.01 in Snow Light Snow
2:54 AM 10.0 °F 1.8 °F 3.9 °F 76% 29.97 in 5.0 mi ENE 4.6 mph - 0.01 in Snow Light Snow
3:54 AM 9.0 °F - 3.0 °F 77% 29.95 in 7.0 mi Calm Calm - 0.00 in Snow Light Snow
4:54 AM 9.0 °F 2.4 °F 3.9 °F 80% 29.94 in 9.0 mi SE 3.5 mph - 0.00 in   Overcast
5:54 AM 10.0 °F - 3.0 °F 73% 29.94 in 10.0 mi Calm Calm - N/A   Overcast
6:54 AM 8.1 °F - 3.0 °F 80% 29.94 in 8.0 mi Calm Calm - 0.00 in Snow Light Snow
7:04 AM 8.6 °F - 3.2 °F 79% 29.90 in 7.0 mi Calm Calm - N/A Snow Light Snow
7:54 AM 7.0 °F - 1.9 °F 80% 29.96 in 4.0 mi Calm Calm - 0.00 in   Haze
8:54 AM 10.9 °F - 5.0 °F 77% 29.96 in 10.0 mi Calm Calm - N/A   Clear
9:54 AM 12.2 °F - 3.2 °F 67% 29.92 in 10.0 mi Calm Calm - N/A   Clear
10:54 AM 15.1 °F 5.2 °F 3.9 °F 61% 29.93 in 9.0 mi WSW 6.9 mph - 0.00 in Snow Light Snow
11:54 AM 17.1 °F 8.7 °F 3.0 °F 54% 29.92 in 10.0 mi West 5.8 mph - 0.00 in   Clear
12:54 PM 19.0 °F 12.3 °F 5.0 °F 54% 29.90 in 10.0 mi West 4.6 mph - N/A   Clear
1:54 PM 21.9 °F 13.4 °F 5.0 °F 48% 29.87 in 10.0 mi WNW 6.9 mph - N/A   Clear
2:54 PM 24.1 °F 14.4 °F 6.1 °F 46% 29.88 in 10.0 mi WNW 9.2 mph - N/A   Clear
3:54 PM 26.1 °F 20.5 °F 6.1 °F 43% 29.86 in 10.0 mi WSW 4.6 mph - N/A   Clear
4:54 PM 24.1 °F 19.7 °F 5.0 °F 44% 29.86 in 10.0 mi SSE 3.5 mph - N/A   Clear
5:54 PM 21.0 °F 12.4 °F 6.1 °F 53% 29.89 in 10.0 mi East 6.9 mph - N/A   Clear
6:54 PM 19.0 °F - 6.1 °F 57% 29.91 in 10.0 mi Calm Calm - N/A   Clear
7:54 PM 15.1 °F 9.4 °F 5.0 °F 64% 29.92 in 10.0 mi SSE 3.5 mph - N/A   Clear
8:54 PM 14.0 °F - 3.9 °F 64% 29.93 in 10.0 mi Calm Calm - N/A   Clear
9:54 PM 12.0 °F - 3.9 °F 70% 29.95 in 10.0 mi Calm Calm - N/A   Clear
10:54 PM 9.0 °F 0.6 °F 1.0 °F 70% 29.96 in 10.0 mi Variable 4.6 mph - N/A   Clear
11:54 PM 7.0 °F - -0.0 °F 73% 29.97 in 10.0 mi Calm Calm - N/A   Clear